#timestamp,LO_Frequency,Hit,StdDev 
1634162415.1,286047001.8,N
1634162435.9,286047003.2,N
1634162455.7,286047003.2,N
1634162475.5,286047005.8,Y
1634162495.4,286047001.5,P
1634162515.2,286047001.7,P
1634162535.1,286047002.4,P
1634162536.0,286047002.4,Y
1634162555.8,286047001.0,P
1634162575.6,286046998.5,P
1634162595.5,286046999.9,N
1634162615.3,286047000.6,N
1634162635.2,286046998.7,N
1634162655.9,286046996.6,N
1634162675.7,286046996.6,N
1634162695.6,286046996.4,N
1634162715.4,286046993.9,Y
1634162735.3,286046996.3,P
1634162755.1,286046995.5,P
1634162756.0,286046995.5,P
1634162775.8,286046995.8,Y
1634162795.7,286046997.3,P
1634162815.5,286046998.6,P
1634162835.3,286047000.6,N
1634162855.2,286047000.9,N
1634162875.0,286047001.5,N
1634162875.9,286047001.5,N
1634162895.8,286047001.5,N
1634162915.6,286047005.5,N
1634162935.4,286047003.7,N
1634162955.3,286047004.3,N
1634162975.1,286047006.0,N
1634162995.9,286047005.7,N
1634163015.7,286047005.2,N
1634163035.5,286047003.0,N
1634163055.4,286047003.8,N
1634163075.2,286047002.1,N
1634163095.0,286047000.4,N
1634163095.9,286047000.4,N
1634163115.8,286047003.9,N
1634163135.6,286046998.8,N
1634163155.5,286047000.2,N
1634163175.3,286047000.3,N
1634163195.1,286047002.8,N
1634163215.9,286047002.2,N
1634163235.7,286047001.4,N
1634163255.5,286047004.2,N
1634163275.4,286047006.0,N
1634163295.2,286047005.7,N
1634163315.1,286047003.4,N
1634163316.0,286047003.4,N
1634163335.8,286047003.8,N
1634163355.6,286047003.6,N
1634163375.5,286047003.1,N
1634163395.3,286047003.8,N
1634163415.2,286047001.5,N
1634163435.9,286047001.3,N
1634163455.7,286047004.0,N
1634163475.6,286047003.9,N
1634163495.4,286047005.4,N
1634163515.2,286047003.1,N
1634163535.1,286047003.8,N
1634163536.0,286047003.8,N
1634163555.8,286047005.9,Y
1634163575.7,286047002.1,P
1634163595.5,286047001.5,P
1634163615.3,286047004.2,P
1634163635.2,286047004.0,Y
1634163655.0,286047000.9,P
1634163655.9,286047000.9,N
1634163675.8,286047002.5,N
1634163695.6,286047000.6,N
1634163715.4,286047002.3,N
1634163735.3,286046999.7,N
1634163755.1,286047002.8,N
1634163775.9,286047000.9,N
1634163795.7,286047000.1,N
1634163815.5,286047000.2,N
1634163835.4,286047002.7,N
1634163855.2,286047001.9,N
1634163875.0,286047001.2,N
1634163875.9,286047001.2,N
1634163895.8,286047000.5,N
1634163915.6,286047000.5,N
1634163935.5,286046998.2,N
1634163955.3,286047001.7,N
1634163975.1,286047003.2,N
1634163995.9,286047003.3,N
1634164015.7,286047004.1,Y
1634164035.5,286047000.5,P
1634164055.4,286047002.6,P
1634164075.2,286047001.8,N
1634164095.1,286047003.0,Y
1634164096.0,286047003.0,P
1634164115.8,286047001.3,N
1634164135.6,286047003.9,P
1634164155.5,286047001.7,N
1634164175.3,286047004.4,Y
1634164195.2,286047002.5,P
1634164215.9,286047001.3,P
1634164235.7,286047003.7,P
1634164255.6,286047003.5,Y
1634164275.4,286047000.6,P
1634164295.2,286046998.3,N
1634164315.1,286047002.5,N
1634164316.0,286047002.5,N
1634164335.8,286046998.7,N
1634164355.7,286046999.2,N
1634164375.5,286046996.8,N
1634164395.3,286046997.4,N
1634164415.2,286046999.5,N
1634164435.0,286046999.1,N
1634164435.9,286046999.1,N
1634164455.8,286046996.5,N
1634164475.6,286047000.5,N
1634164495.4,286047002.7,N
1634164515.3,286047002.5,N
1634164535.1,286047000.2,N
1634164555.8,286046999.5,N
1634164575.7,286046996.5,N
1634164595.5,286046998.5,N
1634164615.3,286046998.8,N
1634164635.2,286046998.3,N
1634164655.0,286047000.3,N
1634164655.9,286047000.3,N
1634164675.8,286046999.3,N
1634164695.6,286046998.5,N
1634164715.4,286047000.4,N
1634164735.3,286047000.1,N
1634164755.1,286047002.0,N
1634164775.9,286047000.2,N
1634164795.7,286047000.3,N
1634164815.5,286046996.7,N
1634164835.4,286046999.4,N
1634164855.2,286046997.3,N
1634164875.0,286047000.4,N
1634164875.9,286047000.4,N
1634164895.8,286047002.3,N
1634164915.6,286047002.1,N
1634164935.5,286047001.9,N
1634164955.3,286047002.4,N
1634164975.1,286047002.0,N
1634164995.9,286047002.4,N
1634165015.7,286046999.9,N
1634165035.6,286046998.8,N
1634165055.4,286046999.8,N
1634165075.2,286047004.1,N
1634165095.1,286047002.7,N
1634165096.0,286047002.7,N
1634165115.8,286047002.8,N
1634165135.6,286046999.8,N
1634165155.5,286047000.6,N
1634165175.3,286047001.4,N
1634165195.2,286047002.3,N
1634165215.9,286047000.0,N
1634165235.7,286047001.3,N
1634165255.6,286047002.5,N
1634165275.4,286046999.9,N
1634165295.2,286046999.9,N
1634165315.1,286047000.7,N
1634165316.0,286047000.7,N
1634165335.8,286047000.8,N
1634165355.7,286046999.8,N
1634165375.5,286046999.9,N
1634165395.3,286047000.5,N
1634165415.2,286047002.6,N
1634165435.0,286047000.5,N
1634165435.9,286047000.5,N
1634165455.7,286046999.8,N
1634165475.6,286047001.6,N
1634165495.4,286047000.3,N
1634165515.3,286046999.7,N
1634165535.1,286047001.0,N
1634165536.0,286047001.0,N
1634165555.8,286047002.0,N
1634165575.7,286047002.2,N
1634165595.5,286047004.2,Y
1634165615.4,286047001.3,P
1634165635.2,286047004.2,P
1634165655.0,286047001.6,N
1634165655.9,286047001.6,N
1634165675.8,286046998.1,N
1634165695.6,286047000.4,N
1634165715.4,286047000.3,N
1634165735.3,286047002.0,N
1634165755.1,286047001.8,N
1634165775.9,286047004.0,N
1634165795.7,286047001.7,N
1634165815.5,286047004.2,N
1634165835.4,286046999.9,N
1634165855.2,286047002.7,N
1634165875.0,286047004.0,N
1634165875.9,286047004.0,N
1634165895.8,286047001.4,N
1634165915.6,286047001.9,N
1634165935.5,286047003.2,N
1634165955.3,286047005.4,Y
1634165975.1,286047001.6,P
1634165995.9,286047001.9,P
